Weather History for OERK - November, 2012

Change the Weather History Date:

Friday, November 9, 2012

  Actual Average Record
Temperature  
Mean Temperature 74 °F -  
Max Temperature 89 °F 76 °F 89 °F (2004)
Min Temperature 60 °F 53 °F 48 °F (2011)
Cooling Degree Days 10    
Growing Degree Days 24 (Base 50)    
Moisture  
Dew Point 35 °F    
Average Humidity 22    
Maximum Humidity 37    
Minimum Humidity 7    
Precipitation  
Precipitation 0.00 in - - ()
Sea Level Pressure  
Sea Level Pressure 30.03 in    
Wind  
Wind Speed 3 mph ()    
Max Wind Speed 10 mph    
Max Gust Speed -    
Visibility 6.0 miles    
Events      
Averages and records for this station are not official NWS values.
T = Trace of Precipitation, MM = Missing Value Source: Averaged Metar Reports

Daily Weather History Graph

Daily Weather History Graph

Search for Another Location

Airport or City:

Trip Planner

Search our weather history database for the weather conditions in past years. The results will help you decide how hot, cold, wet, or windy it might be!

Date:

Astronomy

Nov. 09, 2012 Rise Set
Actual Time 6:05 AM AST 5:08 PM AST
Civil Twilight 5:41 AM AST 5:31 PM AST
Nautical Twilight 5:14 AM AST 5:59 PM AST
Astronomical Twilight 4:47 AM AST 6:26 PM AST
Moon 1:11 AM AST (11/9) 1:41 PM AST (11/9)
Length of Visible Light 11h 50m
Length of Day
11h 02m
Waning Crescent, 26% of the Moon is Illuminated
Nov 9
Waning Crescent
Nov 14
New
Nov 20
First Quarter
Nov 28
Full
Dec 6
Last Quarter

Hourly Weather History & Observations

Time (AST) Temp. Dew Point Humidity Pressure Visibility Wind Dir Wind Speed Gust Speed Precip Events Conditions
12:00 AM 68 °F 34 °F 17% 29.95 in 6 mi SSE 3.5 mph - -  
12:00 AM 68.0 °F 33.8 °F 28% 30.04 in - SSE 3.5 mph - N/A   Clear
1:00 AM 66.2 °F 33.8 °F 30% 30.04 in - Calm Calm - N/A   Clear
2:00 AM 66.2 °F 33.8 °F 30% 30.04 in - Calm Calm - N/A   Clear
3:00 AM 63 °F 32 °F 20% 29.95 in 6 mi Calm Calm - -  
3:00 AM 62.6 °F 32.0 °F 32% 30.04 in - Calm Calm - N/A   Clear
4:00 AM 62.6 °F 35.6 °F 37% 30.04 in - Calm Calm - N/A   Clear
5:00 AM 62.6 °F 30.2 °F 30% 30.04 in - Calm Calm - N/A   Clear
6:00 AM 62 °F 32 °F 21% 29.99 in 6 mi Calm Calm - -  
6:00 AM 60.8 °F 32.0 °F 34% 30.06 in - Calm Calm - N/A   Clear
7:00 AM 60.8 °F 33.8 °F 36% 30.06 in - Calm Calm - N/A   Clear
8:00 AM 69.8 °F 33.8 °F 27% 30.09 in - Calm Calm - N/A   Clear
9:00 AM 78 °F 36 °F 12% 30.02 in 6 mi Calm Calm - -  
9:00 AM 78.8 °F 35.6 °F 21% 30.09 in - Calm Calm - N/A   Clear
10:00 AM 82.4 °F 33.8 °F 17% 30.09 in - Calm Calm - N/A   Clear
11:00 AM 86.0 °F 33.8 °F 15% 30.09 in - South 5.8 mph - N/A   Clear
12:00 PM 87 °F 34 °F 8% 29.96 in 6 mi South 6.9 mph - -  
12:00 PM 87.8 °F 33.8 °F 15% 30.04 in - South 6.9 mph - N/A   Clear
1:00 PM 87.8 °F 33.8 °F 15% 30.04 in - South 9.2 mph - N/A   Clear
2:00 PM 89.6 °F 33.8 °F 14% 30.01 in - SSE 10.4 mph - N/A   Clear
3:00 PM 89 °F 34 °F 7% 29.91 in 6 mi South 9.2 mph - -  
3:00 PM 89.6 °F 33.8 °F 14% 30.01 in - South 9.2 mph - N/A   Clear
4:00 PM 87.8 °F 33.8 °F 15% 30.01 in - South 9.2 mph - N/A   Clear
5:00 PM 86.0 °F 33.8 °F 15% 30.01 in - SE 6.9 mph - N/A   Clear
6:00 PM 81 °F 32 °F 9% 29.96 in 6 mi SSE 4.6 mph - -  
6:00 PM 80.6 °F 32.0 °F 17% 30.04 in - SSE 4.6 mph - N/A   Clear
7:00 PM 78.8 °F 32.0 °F 18% 30.04 in - SE 4.6 mph - N/A   Clear
8:00 PM 75.2 °F 44.6 °F 34% 30.06 in - ESE 4.6 mph - N/A   Clear
9:00 PM 74 °F 43 °F 22% 29.96 in 6 mi East 3.5 mph - -  
9:00 PM 73.4 °F 42.8 °F 33% 30.06 in - East 3.5 mph - N/A   Clear
10:00 PM 71.6 °F 41.0 °F 33% 30.06 in - SSE 4.6 mph - N/A   Clear
11:00 PM 71.6 °F 41.0 °F 33% 30.06 in - SE 4.6 mph - N/A   Clear